| time (UTC) | temp F | wind direction | speed MPH | gust MPH | rain 1hr in | rain 24hr in | rain mn in | humidity % | barometer mb |
| 20260510055933 | 53 | 97 | 2.0 | 7.0 | 0.00 | 0.00 | 0.00 | 88 | 1014.9 |
| 20260510055431 | 53 | 100 | 2.0 | 7.0 | 0.00 | 0.00 | 0.00 | 88 | 1014.9 |
| 20260510054435 | 52 | 60 | 2.0 | 4.0 | 0.00 | 0.00 | 0.00 | 88 | 1014.9 |
| 20260510053934 | 52 | 68 | 2.0 | 4.0 | 0.00 | 0.00 | 0.00 | 88 | 1014.9 |
| 20260510053431 | 52 | 68 | 2.0 | 5.0 | 0.00 | 0.00 | 0.00 | 88 | 1014.9 |
| 20260510052932 | 52 | 68 | 2.0 | 5.0 | 0.00 | 0.00 | 0.00 | 88 | 1014.9 |
| 20260510052432 | 52 | 85 | 2.0 | 4.0 | 0.00 | 0.00 | 0.00 | 88 | 1014.9 |
| 20260510051929 | 52 | 94 | 2.0 | 4.0 | 0.00 | 0.00 | 0.00 | 88 | 1014.9 |
| 20260510050416 | 51 | 106 | 0.0 | 4.0 | 0.00 | 0.00 | 0.00 | 87 | 1014.9 |
| 20260510045915 | 51 | 106 | 0.0 | 4.0 | 0.00 | 0.00 | 0.00 | 87 | 1014.9 |
| 20260510045416 | 51 | 106 | 0.0 | 9.0 | 0.00 | 0.00 | 0.00 | 87 | 1014.8 |
| 20260510044915 | 51 | 48 | 2.0 | 9.0 | 0.00 | 0.00 | 0.00 | 87 | 1014.9 |
| 20260510044414 | 51 | 77 | 0.0 | 4.0 | 0.00 | 0.00 | 0.00 | 87 | 1014.9 |
| 20260510043913 | 51 | 76 | 0.0 | 4.0 | 0.00 | 0.00 | 0.00 | 87 | 1014.8 |
| 20260510042905 | 51 | 92 | 0.0 | 5.0 | 0.00 | 0.00 | 0.00 | 87 | 1014.8 |
| 20260510042406 | 51 | 96 | 0.0 | 5.0 | 0.00 | 0.00 | 0.00 | 87 | 1014.8 |
| 20260510041903 | 51 | 81 | 0.0 | 0.0 | 0.00 | 0.00 | 0.00 | 87 | 1014.8 |
| 20260510041407 | 51 | 81 | 0.0 | 0.0 | 0.00 | 0.00 | 0.00 | 87 | 1014.9 |
| 20260510040905 | 51 | 81 | 0.0 | 0.0 | 0.00 | 0.00 | 0.00 | 87 | 1014.9 |
| 20260510040405 | 51 | 81 | 0.0 | 0.0 | 0.00 | 0.00 | 0.00 | 87 | 1014.8 |
| 20260510035904 | 51 | 81 | 0.0 | 0.0 | 0.00 | 0.00 | 0.00 | 87 | 1014.8 |
| 20260510035403 | 51 | 81 | 0.0 | 0.0 | 0.00 | 0.00 | 0.00 | 87 | 1014.8 |
| 20260510034906 | 51 | 73 | 0.0 | 0.0 | 0.00 | 0.00 | 0.00 | 87 | 1014.7 |
| 20260510034403 | 51 | 73 | 0.0 | 0.0 | 0.00 | 0.00 | 0.00 | 87 | 1014.7 |
| 20260510033905 | 51 | 73 | 0.0 | 0.0 | 0.00 | 0.00 | 0.00 | 86 | 1014.8 |
| 20260510033407 | 51 | 73 | 0.0 | 2.0 | 0.00 | 0.00 | 0.00 | 86 | 1014.7 |
| 20260510032904 | 51 | 73 | 0.0 | 4.0 | 0.00 | 0.00 | 0.00 | 86 | 1014.8 |
| 20260510032403 | 51 | 73 | 0.0 | 4.0 | 0.00 | 0.00 | 0.00 | 86 | 1014.8 |
| 20260510030903 | 51 | 74 | 0.0 | 0.0 | 0.00 | 0.00 | 0.00 | 85 | 1015.1 |
| 20260510025902 | 51 | 74 | 0.0 | 0.0 | 0.00 | 0.00 | 0.00 | 85 | 1015.1 |
| 20260510025406 | 51 | 74 | 0.0 | 0.0 | 0.00 | 0.00 | 0.00 | 84 | 1015.1 |
| 20260510024906 | 51 | 74 | 0.0 | 0.0 | 0.00 | 0.00 | 0.00 | 84 | 1015.1 |
| 20260510024407 | 51 | 74 | 0.0 | 0.0 | 0.00 | 0.00 | 0.00 | 84 | 1015.1 |
| 20260510023849 | 51 | 74 | 0.0 | 0.0 | 0.00 | 0.00 | 0.00 | 84 | 1014.9 |
| 20260510023337 | 51 | 74 | 0.0 | 0.0 | 0.00 | 0.00 | 0.00 | 83 | 1014.9 |
| 20260510022331 | 51 | 74 | 0.0 | 0.0 | 0.00 | 0.00 | 0.00 | 83 | 1015.0 |
| 20260510021839 | 51 | 74 | 0.0 | 0.0 | 0.00 | 0.00 | 0.00 | 83 | 1015.1 |
| 20260510021334 | 51 | 74 | 0.0 | 0.0 | 0.00 | 0.00 | 0.00 | 82 | 1015.1 |
| 20260510020332 | 51 | 74 | 0.0 | 0.0 | 0.00 | 0.00 | 0.00 | 82 | 1015.0 |
| 20260510015330 | 52 | 74 | 0.0 | 0.0 | 0.00 | 0.00 | 0.00 | 81 | 1015.2 |
| 20260510014333 | 52 | 74 | 0.0 | 0.0 | 0.00 | 0.00 | 0.00 | 81 | 1015.2 |
| 20260510013835 | 52 | 74 | 0.0 | 0.0 | 0.00 | 0.00 | 0.00 | 81 | 1015.3 |
| 20260510013333 | 52 | 74 | 0.0 | 0.0 | 0.00 | 0.00 | 0.00 | 80 | 1015.3 |
| 20260510012334 | 53 | 74 | 0.0 | 0.0 | 0.00 | 0.00 | 0.00 | 80 | 1015.3 |
| 20260510011330 | 53 | 74 | 0.0 | 0.0 | 0.00 | 0.00 | 0.00 | 79 | 1015.5 |
| 20260510010829 | 53 | 74 | 0.0 | 0.0 | 0.00 | 0.00 | 0.00 | 79 | 1015.5 |
| 20260510010331 | 53 | 74 | 0.0 | 0.0 | 0.00 | 0.00 | 0.00 | 79 | 1015.4 |
| 20260510005823 | 53 | 74 | 0.0 | 0.0 | 0.00 | 0.00 | 0.00 | 79 | 1015.5 |
| 20260510004812 | 53 | 74 | 0.0 | 0.0 | 0.00 | 0.00 | 0.00 | 78 | 1015.5 |
| 20260510004303 | 53 | 74 | 0.0 | 0.0 | 0.00 | 0.00 | 0.00 | 78 | 1015.6 |
| 20260510003804 | 54 | 74 | 0.0 | 0.0 | 0.00 | 0.00 | 0.00 | 78 | 1015.5 |
| 20260510003307 | 54 | 74 | 0.0 | 0.0 | 0.00 | 0.00 | 0.00 | 77 | 1015.4 |
| 20260510002805 | 54 | 74 | 0.0 | 0.0 | 0.00 | 0.00 | 0.00 | 77 | 1015.5 |
| 20260510001805 | 54 | 74 | 0.0 | 0.0 | 0.00 | 0.00 | 0.00 | 77 | 1015.7 |
| 20260510000803 | 54 | 74 | 0.0 | 0.0 | 0.00 | 0.00 | 0.00 | 77 | 1015.6 |
| 20260510000311 | 54 | 74 | 0.0 | 0.0 | 0.00 | 0.00 | 0.00 | 75 | 1015.8 |
| 20260509235805 | 54 | 74 | 0.0 | 0.0 | 0.00 | 0.00 | 0.00 | 75 | 1015.8 |
| 20260509234806 | 55 | 74 | 0.0 | 0.0 | 0.00 | 0.00 | 0.00 | 75 | 1015.8 |
| 20260509234301 | 55 | 74 | 0.0 | 0.0 | 0.00 | 0.00 | 0.00 | 75 | 1015.8 |
| 20260509233758 | 55 | 74 | 0.0 | 0.0 | 0.00 | 0.00 | 0.00 | 75 | 1015.9 |
| 20260509233258 | 55 | 74 | 0.0 | 0.0 | 0.00 | 0.00 | 0.00 | 75 | 1015.9 |
| 20260509231735 | 55 | 74 | 0.0 | 0.0 | 0.00 | 0.00 | 0.00 | 74 | 1015.9 |
| 20260509230733 | 55 | 74 | 0.0 | 0.0 | 0.00 | 0.00 | 0.00 | 74 | 1015.8 |
| 20260509230232 | 55 | 74 | 0.0 | 0.0 | 0.00 | 0.00 | 0.00 | 73 | 1015.8 |
| 20260509225233 | 56 | 74 | 0.0 | 0.0 | 0.00 | 0.00 | 0.00 | 73 | 1015.8 |
| 20260509224736 | 56 | 74 | 0.0 | 0.0 | 0.00 | 0.00 | 0.00 | 73 | 1015.8 |
| 20260509224232 | 56 | 74 | 0.0 | 0.0 | 0.00 | 0.00 | 0.00 | 72 | 1015.9 |
| 20260509223233 | 56 | 74 | 0.0 | 0.0 | 0.00 | 0.00 | 0.00 | 72 | 1015.8 |
| 20260509222736 | 56 | 74 | 0.0 | 0.0 | 0.00 | 0.00 | 0.00 | 71 | 1015.9 |
| 20260509222234 | 56 | 74 | 0.0 | 0.0 | 0.00 | 0.00 | 0.00 | 71 | 1015.9 |
| 20260509221733 | 57 | 74 | 0.0 | 0.0 | 0.00 | 0.00 | 0.00 | 70 | 1016.0 |
| 20260509220237 | 57 | 74 | 0.0 | 0.0 | 0.00 | 0.00 | 0.00 | 69 | 1015.9 |
| 20260509215734 | 58 | 74 | 0.0 | 0.0 | 0.00 | 0.00 | 0.00 | 69 | 1016.0 |
| 20260509215234 | 58 | 74 | 0.0 | 0.0 | 0.00 | 0.00 | 0.00 | 69 | 1016.0 |
| 20260509214242 | 58 | 74 | 0.0 | 0.0 | 0.00 | 0.00 | 0.00 | 68 | 1015.9 |
| 20260509213731 | 58 | 74 | 0.0 | 0.0 | 0.00 | 0.00 | 0.00 | 68 | 1015.8 |
| 20260509213222 | 58 | 74 | 0.0 | 0.0 | 0.00 | 0.00 | 0.00 | 68 | 1015.8 |
| 20260509212716 | 58 | 74 | 0.0 | 0.0 | 0.00 | 0.00 | 0.00 | 68 | 1015.9 |
| 20260509211704 | 59 | 74 | 0.0 | 0.0 | 0.00 | 0.00 | 0.00 | 67 | 1015.7 |
| 20260509211206 | 59 | 74 | 0.0 | 0.0 | 0.00 | 0.00 | 0.00 | 67 | 1015.8 |
| 20260509210704 | 59 | 74 | 0.0 | 0.0 | 0.00 | 0.00 | 0.00 | 67 | 1015.8 |
| 20260509210205 | 59 | 74 | 0.0 | 0.0 | 0.00 | 0.00 | 0.00 | 66 | 1015.8 |
| 20260509205704 | 60 | 74 | 0.0 | 0.0 | 0.00 | 0.00 | 0.00 | 66 | 1015.7 |
| 20260509205206 | 60 | 74 | 0.0 | 0.0 | 0.00 | 0.00 | 0.00 | 66 | 1015.7 |
| 20260509204705 | 60 | 74 | 0.0 | 0.0 | 0.00 | 0.00 | 0.00 | 65 | 1015.8 |
| 20260509204204 | 60 | 74 | 0.0 | 0.0 | 0.00 | 0.00 | 0.00 | 65 | 1015.7 |
| 20260509203704 | 60 | 74 | 0.0 | 0.0 | 0.00 | 0.00 | 0.00 | 65 | 1015.8 |
| 20260509202703 | 61 | 74 | 0.0 | 2.0 | 0.00 | 0.00 | 0.00 | 64 | 1015.7 |
| 20260509202206 | 61 | 74 | 0.0 | 0.0 | 0.00 | 0.00 | 0.00 | 64 | 1015.7 |
| 20260509201703 | 61 | 74 | 0.0 | 0.0 | 0.00 | 0.00 | 0.00 | 63 | 1015.8 |
| 20260509201207 | 62 | 74 | 0.0 | 4.0 | 0.00 | 0.00 | 0.00 | 63 | 1015.8 |
| 20260509200705 | 62 | 74 | 0.0 | 4.0 | 0.00 | 0.00 | 0.00 | 62 | 1015.8 |
| 20260509200204 | 62 | 74 | 0.0 | 4.0 | 0.00 | 0.00 | 0.00 | 62 | 1015.7 |
| 20260509195658 | 62 | 73 | 0.0 | 4.0 | 0.00 | 0.00 | 0.00 | 62 | 1015.6 |
| 20260509195151 | 62 | 72 | 0.0 | 4.0 | 0.00 | 0.00 | 0.00 | 62 | 1015.4 |
| 20260509194133 | 63 | 72 | 0.0 | 2.0 | 0.00 | 0.00 | 0.00 | 62 | 1015.3 |
| 20260509193633 | 63 | 72 | 0.0 | 2.0 | 0.00 | 0.00 | 0.00 | 61 | 1015.4 |
| 20260509193132 | 63 | 72 | 0.0 | 2.0 | 0.00 | 0.00 | 0.00 | 61 | 1015.4 |
| 20260509192632 | 64 | 72 | 0.0 | 2.0 | 0.00 | 0.00 | 0.00 | 60 | 1015.4 |
| 20260509192135 | 64 | 72 | 0.0 | 2.0 | 0.00 | 0.00 | 0.00 | 59 | 1015.3 |
| 20260509191633 | 64 | 72 | 0.0 | 2.0 | 0.00 | 0.00 | 0.00 | 59 | 1015.4 |
| 20260509191132 | 65 | 72 | 0.0 | 2.0 | 0.00 | 0.00 | 0.00 | 58 | 1015.4 |
| 20260509190630 | 65 | 72 | 0.0 | 2.0 | 0.00 | 0.00 | 0.00 | 58 | 1015.4 |
| 20260509190133 | 65 | 72 | 0.0 | 2.0 | 0.00 | 0.00 | 0.00 | 58 | 1015.4 |
| 20260509185630 | 65 | 72 | 0.0 | 2.0 | 0.00 | 0.00 | 0.00 | 57 | 1015.3 |
| 20260509185130 | 65 | 72 | 0.0 | 2.0 | 0.00 | 0.00 | 0.00 | 57 | 1015.3 |
| 20260509184132 | 66 | 72 | 0.0 | 2.0 | 0.00 | 0.00 | 0.00 | 56 | 1015.3 |
| 20260509183131 | 67 | 72 | 0.0 | 2.0 | 0.00 | 0.00 | 0.00 | 55 | 1015.2 |
| 20260509182132 | 67 | 72 | 0.0 | 2.0 | 0.00 | 0.00 | 0.00 | 54 | 1015.4 |
| 20260509181632 | 67 | 72 | 0.0 | 5.0 | 0.00 | 0.00 | 0.00 | 54 | 1015.4 |
| 20260509181130 | 67 | 72 | 0.0 | 5.0 | 0.00 | 0.00 | 0.00 | 53 | 1015.4 |
| 20260509180133 | 68 | 110 | 0.0 | 4.0 | 0.00 | 0.00 | 0.00 | 53 | 1015.2 |
| 20260509175134 | 68 | 110 | 0.0 | 4.0 | 0.00 | 0.00 | 0.00 | 51 | 1015.2 |
| 20260509174632 | 68 | 114 | 0.0 | 0.0 | 0.00 | 0.00 | 0.00 | 51 | 1015.1 |
| 20260509174134 | 69 | 114 | 0.0 | 2.0 | 0.00 | 0.00 | 0.00 | 52 | 1015.1 |
| 20260509173632 | 69 | 114 | 0.0 | 5.0 | 0.00 | 0.00 | 0.00 | 50 | 1015.1 |
| 20260509173136 | 69 | 114 | 2.0 | 5.0 | 0.00 | 0.00 | 0.00 | 50 | 1015.0 |
| 20260509172632 | 69 | 114 | 2.0 | 5.0 | 0.00 | 0.00 | 0.00 | 49 | 1015.0 |
| 20260509171632 | 69 | 97 | 2.0 | 5.0 | 0.00 | 0.00 | 0.00 | 50 | 1015.0 |
| 20260509171133 | 69 | 62 | 0.0 | 5.0 | 0.00 | 0.00 | 0.00 | 50 | 1015.0 |
| 20260509170633 | 69 | 60 | 0.0 | 5.0 | 0.00 | 0.00 | 0.00 | 50 | 1015.1 |
| 20260509165633 | 69 | 30 | 0.0 | 4.0 | 0.00 | 0.00 | 0.00 | 49 | 1015.2 |
| 20260509165131 | 69 | 30 | 2.0 | 4.0 | 0.00 | 0.00 | 0.00 | 49 | 1015.2 |
| 20260509164633 | 70 | 30 | 2.0 | 4.0 | 0.00 | 0.00 | 0.00 | 50 | 1015.3 |
| 20260509164131 | 69 | 30 | 2.0 | 5.0 | 0.00 | 0.00 | 0.00 | 50 | 1015.3 |
| 20260509163630 | 69 | 116 | 2.0 | 5.0 | 0.00 | 0.00 | 0.00 | 51 | 1015.4 |
| 20260509163132 | 69 | 136 | 2.0 | 7.0 | 0.00 | 0.00 | 0.00 | 51 | 1015.4 |
| 20260509162630 | 69 | 136 | 0.0 | 7.0 | 0.00 | 0.00 | 0.00 | 51 | 1015.3 |
| 20260509162134 | 69 | 105 | 0.0 | 7.0 | 0.00 | 0.00 | 0.00 | 51 | 1015.2 |
| 20260509161632 | 69 | 133 | 2.0 | 5.0 | 0.00 | 0.00 | 0.00 | 51 | 1015.3 |
| 20260509161133 | 69 | 131 | 2.0 | 5.0 | 0.00 | 0.00 | 0.00 | 51 | 1015.3 |
| 20260509160133 | 70 | 108 | 2.0 | 5.0 | 0.00 | 0.00 | 0.00 | 52 | 1015.3 |
| 20260509155623 | 70 | 107 | 2.0 | 5.0 | 0.00 | 0.00 | 0.00 | 50 | 1015.3 |
| 20260509155122 | 70 | 97 | 2.0 | 5.0 | 0.00 | 0.00 | 0.00 | 49 | 1015.4 |
| 20260509154119 | 71 | 58 | 2.0 | 5.0 | 0.00 | 0.00 | 0.00 | 48 | 1015.3 |
| 20260509153116 | 72 | 310 | 4.0 | 14.0 | 0.00 | 0.00 | 0.00 | 47 | 1015.4 |
| 20260509152612 | 73 | 110 | 2.0 | 11.0 | 0.00 | 0.00 | 0.00 | 46 | 1015.4 |
| 20260509151104 | 72 | 158 | 4.0 | 12.0 | 0.00 | 0.00 | 0.00 | 46 | 1015.6 |
| 20260509150602 | 72 | 191 | 2.0 | 9.0 | 0.00 | 0.00 | 0.00 | 47 | 1015.6 |
| 20260509150104 | 71 | 222 | 2.0 | 9.0 | 0.00 | 0.00 | 0.00 | 49 | 1015.6 |
| 20260509145603 | 71 | 144 | 2.0 | 5.0 | 0.00 | 0.00 | 0.00 | 48 | 1015.7 |
| 20260509145104 | 70 | 116 | 2.0 | 9.0 | 0.00 | 0.00 | 0.00 | 49 | 1015.5 |
| 20260509144603 | 70 | 119 | 2.0 | 9.0 | 0.00 | 0.00 | 0.00 | 50 | 1015.7 |
| 20260509144103 | 70 | 91 | 2.0 | 5.0 | 0.00 | 0.00 | 0.00 | 48 | 1015.7 |
| 20260509143604 | 71 | 114 | 2.0 | 5.0 | 0.00 | 0.00 | 0.00 | 48 | 1015.8 |
| 20260509142602 | 70 | 169 | 2.0 | 5.0 | 0.00 | 0.00 | 0.00 | 50 | 1015.8 |
| 20260509141604 | 71 | 228 | 2.0 | 7.0 | 0.00 | 0.00 | 0.00 | 49 | 1015.9 |
| 20260509140603 | 71 | 35 | 2.0 | 5.0 | 0.00 | 0.00 | 0.00 | 48 | 1015.9 |
| 20260509140104 | 70 | 139 | 2.0 | 5.0 | 0.00 | 0.00 | 0.00 | 53 | 1015.8 |
| 20260509135604 | 69 | 137 | 4.0 | 11.0 | 0.00 | 0.00 | 0.00 | 52 | 1016.0 |
| 20260509135103 | 69 | 79 | 4.0 | 11.0 | 0.00 | 0.00 | 0.00 | 49 | 1015.9 |
| 20260509134606 | 70 | 104 | 4.0 | 12.0 | 0.00 | 0.00 | 0.00 | 49 | 1016.0 |
| 20260509134103 | 71 | 166 | 5.0 | 12.0 | 0.00 | 0.00 | 0.00 | 49 | 1016.0 |
| 20260509133602 | 71 | 189 | 4.0 | 12.0 | 0.00 | 0.00 | 0.00 | 49 | 1016.0 |
| 20260509133104 | 71 | 130 | 2.0 | 7.0 | 0.00 | 0.00 | 0.00 | 50 | 1016.1 |
| 20260509132604 | 71 | 227 | 4.0 | 12.0 | 0.00 | 0.00 | 0.00 | 49 | 1016.2 |
| 20260509132104 | 70 | 195 | 4.0 | 14.0 | 0.00 | 0.00 | 0.00 | 50 | 1016.4 |
| 20260509131606 | 71 | 130 | 4.0 | 14.0 | 0.00 | 0.00 | 0.00 | 52 | 1016.4 |
| 20260509131103 | 71 | 87 | 4.0 | 9.0 | 0.00 | 0.00 | 0.00 | 50 | 1016.4 |
| 20260509130605 | 71 | 144 | 4.0 | 9.0 | 0.00 | 0.00 | 0.00 | 51 | 1016.5 |
| 20260509130105 | 70 | 168 | 2.0 | 9.0 | 0.00 | 0.00 | 0.00 | 50 | 1016.5 |
| 20260509125602 | 69 | 127 | 2.0 | 5.0 | 0.00 | 0.00 | 0.00 | 53 | 1016.6 |
| 20260509125104 | 68 | 51 | 2.0 | 7.0 | 0.00 | 0.00 | 0.00 | 53 | 1016.6 |
| 20260509124554 | 67 | 93 | 4.0 | 11.0 | 0.00 | 0.00 | 0.00 | 54 | 1016.6 |
| 20260509124055 | 67 | 148 | 4.0 | 11.0 | 0.00 | 0.00 | 0.00 | 53 | 1016.7 |
| 20260509123554 | 67 | 172 | 2.0 | 9.0 | 0.00 | 0.00 | 0.00 | 54 | 1016.6 |
| 20260509123055 | 68 | 149 | 2.0 | 7.0 | 0.00 | 0.00 | 0.00 | 55 | 1016.7 |
| 20260509122053 | 68 | 159 | 2.0 | 5.0 | 0.00 | 0.00 | 0.00 | 54 | 1016.9 |
| 20260509121048 | 68 | 110 | 2.0 | 9.0 | 0.00 | 0.00 | 0.00 | 54 | 1017.0 |
| 20260509120038 | 69 | 1 | 2.0 | 5.0 | 0.00 | 0.00 | 0.00 | 52 | 1017.0 |
| 20260509115036 | 70 | 353 | 2.0 | 7.0 | 0.00 | 0.00 | 0.00 | 51 | 1017.1 |
| 20260509114536 | 70 | 156 | 4.0 | 11.0 | 0.00 | 0.00 | 0.00 | 51 | 1017.1 |
| 20260509113534 | 69 | 40 | 2.0 | 12.0 | 0.00 | 0.00 | 0.00 | 53 | 1017.3 |
| 20260509111534 | 70 | 173 | 2.0 | 9.0 | 0.00 | 0.00 | 0.00 | 53 | 1017.5 |
| 20260509111034 | 68 | 92 | 4.0 | 12.0 | 0.00 | 0.00 | 0.00 | 53 | 1017.4 |
| 20260509110533 | 67 | 105 | 2.0 | 12.0 | 0.00 | 0.00 | 0.00 | 55 | 1017.7 |
| 20260509110031 | 68 | 91 | 2.0 | 7.0 | 0.00 | 0.00 | 0.00 | 54 | 1017.6 |
| 20260509105533 | 68 | 135 | 4.0 | 9.0 | 0.00 | 0.00 | 0.00 | 54 | 1017.6 |
| 20260509105031 | 69 | 221 | 4.0 | 9.0 | 0.00 | 0.00 | 0.00 | 52 | 1017.7 |
| 20260509104531 | 70 | 118 | 2.0 | 9.0 | 0.00 | 0.00 | 0.00 | 53 | 1017.7 |
| 20260509104029 | 69 | 156 | 4.0 | 14.0 | 0.00 | 0.00 | 0.00 | 52 | 1017.6 |
| 20260509103528 | 68 | 74 | 4.0 | 14.0 | 0.00 | 0.00 | 0.00 | 54 | 1017.8 |
| 20260509103022 | 68 | 125 | 4.0 | 14.0 | 0.00 | 0.00 | 0.00 | 52 | 1017.8 |
| 20260509102017 | 69 | 80 | 4.0 | 14.0 | 0.00 | 0.00 | 0.00 | 55 | 1017.9 |
| 20260509101518 | 69 | 120 | 4.0 | 9.0 | 0.00 | 0.00 | 0.00 | 53 | 1017.9 |
| 20260509101028 | 68 | 212 | 4.0 | 12.0 | 0.00 | 0.00 | 0.00 | 53 | 1017.9 |
| 20260509095512 | 68 | 90 | 4.0 | 11.0 | 0.00 | 0.00 | 0.00 | 53 | 1017.9 |
| 20260509095013 | 67 | 122 | 4.0 | 9.0 | 0.00 | 0.00 | 0.00 | 56 | 1017.9 |
| 20260509094509 | 67 | 145 | 4.0 | 9.0 | 0.00 | 0.00 | 0.00 | 53 | 1018.1 |
| 20260509094009 | 68 | 69 | 4.0 | 9.0 | 0.00 | 0.00 | 0.00 | 54 | 1018.1 |
| 20260509093509 | 67 | 174 | 4.0 | 9.0 | 0.00 | 0.00 | 0.00 | 53 | 1018.0 |
| 20260509093006 | 67 | 124 | 4.0 | 12.0 | 0.00 | 0.00 | 0.00 | 54 | 1018.1 |
| 20260509092018 | 66 | 128 | 4.0 | 12.0 | 0.00 | 0.00 | 0.00 | 54 | 1018.0 |
| 20260509091016 | 66 | 97 | 4.0 | 11.0 | 0.00 | 0.00 | 0.00 | 54 | 1018.1 |
| 20260509090504 | 66 | 94 | 4.0 | 11.0 | 0.00 | 0.00 | 0.00 | 54 | 1018.2 |
| 20260509090005 | 66 | 176 | 4.0 | 9.0 | 0.00 | 0.00 | 0.00 | 55 | 1018.2 |
| 20260509085504 | 66 | 95 | 4.0 | 12.0 | 0.00 | 0.00 | 0.00 | 59 | 1018.1 |
| 20260509085006 | 65 | 131 | 4.0 | 12.0 | 0.00 | 0.00 | 0.00 | 58 | 1018.2 |
| 20260509084508 | 66 | 85 | 4.0 | 9.0 | 0.00 | 0.00 | 0.00 | 61 | 1018.1 |
| 20260509084007 | 65 | 133 | 4.0 | 11.0 | 0.00 | 0.00 | 0.00 | 62 | 1018.2 |
| 20260509083509 | 65 | 120 | 4.0 | 11.0 | 0.00 | 0.00 | 0.00 | 63 | 1018.2 |
| 20260509083005 | 65 | 125 | 2.0 | 5.0 | 0.00 | 0.00 | 0.00 | 63 | 1018.2 |
| 20260509082004 | 64 | 153 | 2.0 | 5.0 | 0.00 | 0.00 | 0.00 | 67 | 1018.4 |
| 20260509081504 | 63 | 160 | 2.0 | 5.0 | 0.00 | 0.00 | 0.00 | 68 | 1018.4 |
| 20260509081002 | 63 | 162 | 2.0 | 5.0 | 0.00 | 0.00 | 0.00 | 67 | 1018.5 |
| 20260509080502 | 63 | 118 | 2.0 | 5.0 | 0.00 | 0.00 | 0.00 | 67 | 1018.5 |
| 20260509080006 | 62 | 149 | 2.0 | 4.0 | 0.00 | 0.00 | 0.00 | 70 | 1018.9 |
| 20260509075506 | 62 | 149 | 2.0 | 5.0 | 0.00 | 0.00 | 0.00 | 70 | 1018.6 |
| 20260509074502 | 60 | 149 | 2.0 | 7.0 | 0.00 | 0.00 | 0.00 | 71 | 1018.5 |
| 20260509073503 | 59 | 140 | 4.0 | 7.0 | 0.00 | 0.00 | 0.00 | 73 | 1018.6 |
| 20260509073005 | 59 | 156 | 2.0 | 7.0 | 0.00 | 0.00 | 0.00 | 74 | 1018.6 |
| 20260509072502 | 58 | 126 | 2.0 | 5.0 | 0.00 | 0.00 | 0.00 | 75 | 1018.6 |
| 20260509072003 | 58 | 114 | 2.0 | 5.0 | 0.00 | 0.00 | 0.00 | 78 | 1018.6 |
| 20260509071504 | 57 | 114 | 2.0 | 7.0 | 0.00 | 0.00 | 0.00 | 79 | 1018.6 |
| 20260509071003 | 57 | 114 | 2.0 | 7.0 | 0.00 | 0.00 | 0.00 | 79 | 1018.6 |
| 20260509070504 | 57 | 113 | 2.0 | 4.0 | 0.00 | 0.00 | 0.00 | 80 | 1018.7 |
| 20260509065003 | 56 | 106 | 2.0 | 5.0 | 0.00 | 0.00 | 0.00 | 81 | 1018.7 |
| 20260509064505 | 55 | 118 | 2.0 | 5.0 | 0.00 | 0.00 | 0.00 | 83 | 1018.6 |
| 20260509064005 | 55 | 122 | 2.0 | 7.0 | 0.00 | 0.00 | 0.00 | 84 | 1018.5 |
| 20260509063505 | 54 | 124 | 2.0 | 7.0 | 0.00 | 0.00 | 0.00 | 85 | 1018.6 |
| 20260509062501 | 53 | 130 | 2.0 | 5.0 | 0.00 | 0.00 | 0.00 | 88 | 1018.6 |
| 20260509061959 | 52 | 130 | 0.0 | 5.0 | 0.00 | 0.00 | 0.00 | 90 | 1018.5 |
| 20260509061452 | 51 | 112 | 0.0 | 0.0 | 0.00 | 0.00 | 0.00 | 91 | 1018.6 |
| 20260509060449 | 50 | 112 | 0.0 | 0.0 | 0.00 | 0.00 | 0.00 | 92 | 1018.6 |